Location: Wavehorne
(51.0500°N, 0.8333°E)
Time: 18:25:29
(UTC+00:00)

Cosmos 2098 Rocket - Pass Details

Date: 20 June 2021
Orbit: 366 x 1177 km, 82.9° (Epoch: 22 July)

Event Time Altitude Azimuth Distance (km) Brightness Sun altitude
Exits shadow 01:13:54 18° 178° (S) 1,886 4.9 -13.7°
Maximum altitude 01:17:54 71° 97° (E) 749 3.5 -13.5°
Drops below altitude 10° 01:22:12 10° 14° (NNE) 1,951 7.1 -13.3°
Sets 01:24:10 0° 12° (NNE) 2,747 8.3 -13.1°
